Location: Banios
(43.0451°N, 0.2335°E)
Time: 11:54:15
(UTC+00:00)

Envisat - Pass Details

Date: 10 December 2021
Orbit: 764 x 766 km, 98.2° (Epoch: 20 January)

Event Time Altitude Azimuth Distance (km) Brightness Sun altitude
Rises 03:30:36 0° 35° (NE) 3,240 6.7 -40.9°
Reaches altitude 10° 03:34:33 10° 65° (ENE) 2,306 6.1 -40.2°
Maximum altitude 03:36:29 12° 88° (E) 2,160 6.0 -39.8°
Drops below altitude 10° 03:38:25 10° 111° (ESE) 2,299 6.0 -39.5°
Sets 03:42:18 0° 141° (SE) 3,218 6.6 -38.8°
